Location: Beneden-Haastrecht
(52.0012°N, 4.7557°E)
Time: 03:28:36
(UTC+00:00)

NOAA 11 - Pass Details

Date: 24 October 2020
Orbit: 833 x 850 km, 98.4° (Epoch: 24 November)

Event Time Altitude Azimuth Distance (km) Brightness Sun altitude
Rises 16:52:07 0° 150° (SSE) 3,387 7.2 -4.5°
Reaches altitude 10° 16:54:30 10° 146° (SSE) 2,454 6.4 -4.9°
Maximum altitude 16:59:50 59° 69° (ENE) 968 4.3 -5.7°
Drops below altitude 10° 17:05:11 10° 351° (N) 2,461 6.6 -6.5°
Sets 17:07:34 0° 348° (NNW) 3,397 7.4 -6.8°
